Time,TemperatureF,DewpointF,PressureIn,WindDirection,WindDirectionDegrees,WindSpeedMPH,WindSpeedGustMPH,Humidity,HourlyPrecipIn,Conditions,Clouds,dailyrainin,SoftwareType,DateUTC
2014-02-04 00:00:00,37.2,36.0,30.13,North,351,0.0,-999.0,96,-99.99,,,0.28,weatherlink.com 1.10,2014-02-04 05:00:00,
2014-02-04 00:15:00,36.7,36.0,30.12,North,351,0.0,-999.0,96,-99.99,,,0.00,weatherlink.com 1.10,2014-02-04 05:15:00,
2014-02-04 00:30:00,36.2,35.0,30.12,North,351,0.0,-999.0,96,-99.99,,,0.00,weatherlink.com 1.10,2014-02-04 05:30:00,
2014-02-04 00:45:00,35.7,35.0,30.12,North,351,0.0,-999.0,96,-99.99,,,0.00,weatherlink.com 1.10,2014-02-04 05:45:00,
2014-02-04 01:00:00,35.4,34.0,30.11,North,351,0.0,-999.0,96,-99.99,,,0.00,weatherlink.com 1.10,2014-02-04 06:00:00,
2014-02-04 01:15:00,35.1,34.0,30.11,North,351,0.0,-999.0,96,-99.99,,,0.00,weatherlink.com 1.10,2014-02-04 06:15:00,
2014-02-04 01:30:00,34.7,34.0,30.12,North,351,0.0,-999.0,96,-99.99,,,0.00,weatherlink.com 1.10,2014-02-04 06:30:00,
2014-02-04 01:45:00,34.4,33.0,30.12,North,351,0.0,-999.0,96,-99.99,,,0.00,weatherlink.com 1.10,2014-02-04 06:45:00,
2014-02-04 02:00:00,34.4,34.0,30.12,North,351,0.0,-999.0,97,-99.99,,,0.00,weatherlink.com 1.10,2014-02-04 07:00:00,
2014-02-04 02:15:00,34.2,34.0,30.12,North,351,0.0,-999.0,97,-99.99,,,0.00,weatherlink.com 1.10,2014-02-04 07:15:00,
2014-02-04 02:30:00,34.1,33.0,30.11,North,351,0.0,-999.0,97,-99.99,,,0.00,weatherlink.com 1.10,2014-02-04 07:30:00,
2014-02-04 02:45:00,34.0,33.0,30.11,North,350,0.0,-999.0,97,-99.99,,,0.00,weatherlink.com 1.10,2014-02-04 07:45:00,
2014-02-04 03:00:00,33.9,33.0,30.11,North,350,0.0,-999.0,97,-99.99,,,0.00,weatherlink.com 1.10,2014-02-04 08:00:00,
2014-02-04 03:16:00,33.7,33.0,30.12,North,351,0.0,-999.0,97,-99.99,,,0.00,weatherlink.com 1.10,2014-02-04 08:16:00,
2014-02-04 03:31:00,33.7,33.0,30.11,North,351,0.0,-999.0,97,-99.99,,,0.00,weatherlink.com 1.10,2014-02-04 08:31:00,
2014-02-04 03:46:00,33.7,33.0,30.11,North,350,0.0,-999.0,97,-99.99,,,0.00,weatherlink.com 1.10,2014-02-04 08:46:00,
2014-02-04 04:01:00,33.7,33.0,30.11,North,351,0.0,-999.0,97,-99.99,,,0.00,weatherlink.com 1.10,2014-02-04 09:01:00,
2014-02-04 04:16:00,33.8,33.0,30.12,North,351,0.0,-999.0,97,-99.99,,,0.00,weatherlink.com 1.10,2014-02-04 09:16:00,
2014-02-04 04:31:00,34.0,33.0,30.11,North,351,0.0,-999.0,97,-99.99,,,0.00,weatherlink.com 1.10,2014-02-04 09:31:00,
2014-02-04 04:46:00,34.0,33.0,30.12,North,351,0.0,-999.0,97,-99.99,,,0.00,weatherlink.com 1.10,2014-02-04 09:46:00,
2014-02-04 05:01:00,34.2,34.0,30.12,North,350,0.0,-999.0,98,-99.99,,,0.00,weatherlink.com 1.10,2014-02-04 10:01:00,
2014-02-04 05:16:00,34.4,34.0,30.13,North,350,0.0,-999.0,98,-99.99,,,0.00,weatherlink.com 1.10,2014-02-04 10:16:00,
2014-02-04 05:31:00,34.4,34.0,30.12,North,350,0.0,-999.0,98,-99.99,,,0.00,weatherlink.com 1.10,2014-02-04 10:31:00,
2014-02-04 05:46:00,34.4,34.0,30.12,North,351,0.0,-999.0,98,-99.99,,,0.00,weatherlink.com 1.10,2014-02-04 10:46:00,
2014-02-04 06:01:00,34.8,34.0,30.13,North,351,0.0,-999.0,98,-99.99,,,0.00,weatherlink.com 1.10,2014-02-04 11:01:00,
2014-02-04 06:16:00,35.2,35.0,30.13,North,351,0.0,-999.0,98,-99.99,,,0.00,weatherlink.com 1.10,2014-02-04 11:16:00,
2014-02-04 06:31:00,38.0,38.0,30.14,North,351,0.0,-999.0,99,-99.99,,,0.00,weatherlink.com 1.10,2014-02-04 11:31:00,
2014-02-04 06:46:00,41.7,42.0,30.14,North,350,1.0,-999.0,99,-99.99,,,0.00,weatherlink.com 1.10,2014-02-04 11:46:00,
2014-02-04 07:01:00,43.8,44.0,30.13,North,350,1.0,-999.0,99,-99.99,,,0.00,weatherlink.com 1.10,2014-02-04 12:01:00,
2014-02-04 07:16:00,44.8,44.0,30.14,North,350,0.0,-999.0,98,-99.99,,,0.00,weatherlink.com 1.10,2014-02-04 12:16:00,
2014-02-04 07:31:00,45.5,44.0,30.14,North,350,0.0,-999.0,95,-99.99,,,0.00,weatherlink.com 1.10,2014-02-04 12:31:00,
2014-02-04 07:46:00,45.8,44.0,30.14,South,172,1.0,-999.0,93,-99.99,,,0.00,weatherlink.com 1.10,2014-02-04 12:46:00,
2014-02-04 08:01:00,46.0,44.0,30.15,South,172,0.0,-999.0,91,-99.99,,,0.00,weatherlink.com 1.10,2014-02-04 13:01:00,
2014-02-04 08:16:00,46.2,44.0,30.16,SSE,161,2.0,-999.0,91,-99.99,,,0.00,weatherlink.com 1.10,2014-02-04 13:16:00,
2014-02-04 08:31:00,46.3,44.0,30.17,SSW,194,0.0,-999.0,90,-99.99,,,0.00,weatherlink.com 1.10,2014-02-04 13:31:00,
2014-02-04 08:46:00,46.3,44.0,30.17,SW,222,0.0,-999.0,90,-99.99,,,0.00,weatherlink.com 1.10,2014-02-04 13:46:00,
2014-02-04 09:01:00,46.3,44.0,30.18,WNW,303,0.0,-999.0,90,-99.99,,,0.00,weatherlink.com 1.10,2014-02-04 14:01:00,
2014-02-04 09:16:00,46.3,44.0,30.18,SSE,163,0.0,-999.0,90,-99.99,,,0.00,weatherlink.com 1.10,2014-02-04 14:16:00,
2014-02-04 09:31:00,46.3,44.0,30.18,WSW,248,0.0,-999.0,90,-99.99,,,0.00,weatherlink.com 1.10,2014-02-04 14:31:00,
2014-02-04 09:46:00,46.2,44.0,30.18,WSW,257,0.0,-999.0,90,-99.99,,,0.00,weatherlink.com 1.10,2014-02-04 14:46:00,
2014-02-04 10:01:00,46.4,44.0,30.18,South,178,0.0,-999.0,90,-99.99,,,0.00,weatherlink.com 1.10,2014-02-04 15:01:00,
2014-02-04 10:16:00,46.5,44.0,30.18,South,179,0.0,-999.0,89,-99.99,,,0.00,weatherlink.com 1.10,2014-02-04 15:16:00,
2014-02-04 10:31:00,46.8,44.0,30.17,SSE,164,2.0,-999.0,90,-99.99,,,0.00,weatherlink.com 1.10,2014-02-04 15:31:00,
2014-02-04 10:46:00,47.0,44.0,30.16,SSE,167,0.0,-999.0,89,-99.99,,,0.00,weatherlink.com 1.10,2014-02-04 15:46:00,
2014-02-04 11:01:00,47.2,44.0,30.16,SE,145,1.0,-999.0,89,-99.99,,,0.00,weatherlink.com 1.10,2014-02-04 16:01:00,
2014-02-04 11:16:00,47.2,44.0,30.15,South,176,0.0,-999.0,89,-99.99,,,0.00,weatherlink.com 1.10,2014-02-04 16:16:00,
2014-02-04 11:31:00,47.2,44.0,30.15,South,169,5.0,-999.0,89,-99.99,,,0.00,weatherlink.com 1.10,2014-02-04 16:31:00,
2014-02-04 11:46:00,47.1,44.0,30.14,SSE,167,5.0,-999.0,90,-99.99,,,0.00,weatherlink.com 1.10,2014-02-04 16:46:00,
2014-02-04 12:01:00,46.9,44.0,30.14,South,177,0.0,-999.0,90,-99.99,,,0.00,weatherlink.com 1.10,2014-02-04 17:01:00,
2014-02-04 12:16:00,47.3,45.0,30.12,SSE,160,0.0,-999.0,90,-99.99,,,0.00,weatherlink.com 1.10,2014-02-04 17:16:00,
2014-02-04 12:31:00,47.4,45.0,30.11,SSE,165,1.0,-999.0,90,-99.99,,,0.00,weatherlink.com 1.10,2014-02-04 17:31:00,
2014-02-04 12:46:00,47.5,45.0,30.10,SSE,164,0.0,-999.0,90,-99.99,,,0.00,weatherlink.com 1.10,2014-02-04 17:46:00,
2014-02-04 13:01:00,47.5,45.0,30.09,SSE,157,9.0,-999.0,90,-99.99,,,0.00,weatherlink.com 1.10,2014-02-04 18:01:00,
2014-02-04 13:16:00,47.4,45.0,30.08,SSE,162,1.0,-999.0,90,-99.99,,,0.00,weatherlink.com 1.10,2014-02-04 18:16:00,
2014-02-04 13:31:00,47.6,45.0,30.07,South,188,0.0,-999.0,90,-99.99,,,0.00,weatherlink.com 1.10,2014-02-04 18:31:00,
2014-02-04 13:47:00,47.6,45.0,30.07,South,171,3.0,-999.0,91,-99.99,,,0.00,weatherlink.com 1.10,2014-02-04 18:47:00,
2014-02-04 14:02:00,47.4,45.0,30.06,South,175,6.0,-999.0,91,-99.99,,,0.00,weatherlink.com 1.10,2014-02-04 19:02:00,
2014-02-04 14:17:00,47.1,45.0,30.06,South,169,6.0,-999.0,92,-99.99,,,0.00,weatherlink.com 1.10,2014-02-04 19:17:00,
2014-02-04 14:32:00,46.8,45.0,30.05,SSE,166,2.0,-999.0,92,-99.99,,,0.00,weatherlink.com 1.10,2014-02-04 19:32:00,
2014-02-04 14:47:00,46.7,45.0,30.05,SSE,159,0.0,-999.0,93,-99.99,,,0.00,weatherlink.com 1.10,2014-02-04 19:47:00,
2014-02-04 15:02:00,46.6,45.0,30.05,SSE,155,1.0,-999.0,93,-99.99,,,0.00,weatherlink.com 1.10,2014-02-04 20:02:00,
2014-02-04 15:17:00,46.2,44.0,30.05,South,183,3.0,-999.0,93,-99.99,,,0.00,weatherlink.com 1.10,2014-02-04 20:17:00,
2014-02-04 15:32:00,45.8,44.0,30.04,South,172,1.0,-999.0,94,-99.99,,,0.00,weatherlink.com 1.10,2014-02-04 20:32:00,
2014-02-04 15:47:00,45.8,44.0,30.04,SSE,165,0.0,-999.0,94,-99.99,,,0.00,weatherlink.com 1.10,2014-02-04 20:47:00,
2014-02-04 16:02:00,45.4,44.0,30.04,SSE,165,0.0,-999.0,95,-99.99,,,0.00,weatherlink.com 1.10,2014-02-04 21:02:00,
2014-02-04 16:17:00,45.1,44.0,30.03,SSE,159,0.0,-999.0,95,-99.99,,,0.00,weatherlink.com 1.10,2014-02-04 21:17:00,
2014-02-04 16:32:00,45.0,44.0,30.04,SSE,164,0.0,-999.0,95,-99.99,,,0.00,weatherlink.com 1.10,2014-02-04 21:32:00,
2014-02-04 16:47:00,44.9,44.0,30.03,SSE,163,0.0,-999.0,96,-99.99,,,0.00,weatherlink.com 1.10,2014-02-04 21:47:00,
2014-02-04 17:02:00,44.7,44.0,30.03,SE,146,0.0,-999.0,96,-99.99,,,0.01,weatherlink.com 1.10,2014-02-04 22:02:00,
2014-02-04 17:17:00,44.4,43.0,30.04,SSE,150,0.0,-999.0,96,-99.99,,,0.02,weatherlink.com 1.10,2014-02-04 22:17:00,
2014-02-04 17:32:00,44.1,43.0,30.03,South,169,0.0,-999.0,97,-99.99,,,0.02,weatherlink.com 1.10,2014-02-04 22:32:00,
2014-02-04 17:47:00,44.0,43.0,30.03,SSE,167,2.0,-999.0,97,-99.99,,,0.02,weatherlink.com 1.10,2014-02-04 22:47:00,
2014-02-04 18:02:00,43.7,43.0,30.03,SSE,168,0.0,-999.0,97,-99.99,,,0.03,weatherlink.com 1.10,2014-02-04 23:02:00,
2014-02-04 18:17:00,43.4,43.0,30.01,SSE,161,0.0,-999.0,97,-99.99,,,0.04,weatherlink.com 1.10,2014-02-04 23:17:00,
2014-02-04 18:32:00,43.2,42.0,30.02,SSE,167,0.0,-999.0,97,-99.99,,,0.04,weatherlink.com 1.10,2014-02-04 23:32:00,
2014-02-04 18:47:00,43.1,42.0,30.02,SSE,161,0.0,-999.0,97,-99.99,,,0.04,weatherlink.com 1.10,2014-02-04 23:47:00,
2014-02-04 19:02:00,42.9,42.0,30.02,SSE,167,0.0,-999.0,97,-99.99,,,0.04,weatherlink.com 1.10,2014-02-05 00:02:00,
2014-02-04 19:17:00,42.9,42.0,30.02,SSE,167,0.0,-999.0,97,-99.99,,,0.04,weatherlink.com 1.10,2014-02-05 00:17:00,
2014-02-04 19:32:00,42.8,42.0,30.01,SSE,167,0.0,-999.0,98,-99.99,,,0.04,weatherlink.com 1.10,2014-02-05 00:32:00,
2014-02-04 19:47:00,42.6,42.0,30.01,SSE,159,3.0,-999.0,98,-99.99,,,0.04,weatherlink.com 1.10,2014-02-05 00:47:00,
2014-02-04 20:02:00,42.4,42.0,30.00,SSE,168,0.0,-999.0,98,-99.99,,,0.04,weatherlink.com 1.10,2014-02-05 01:02:00,
2014-02-04 20:17:00,42.2,42.0,30.00,South,184,1.0,-999.0,98,-99.99,,,0.04,weatherlink.com 1.10,2014-02-05 01:17:00,
2014-02-04 20:32:00,42.2,42.0,30.00,South,172,0.0,-999.0,98,-99.99,,,0.04,weatherlink.com 1.10,2014-02-05 01:32:00,
2014-02-04 20:47:00,42.2,42.0,29.99,South,182,3.0,-999.0,98,-99.99,,,0.04,weatherlink.com 1.10,2014-02-05 01:47:00,
2014-02-04 21:02:00,42.1,42.0,30.00,SSE,159,4.0,-999.0,98,-99.99,,,0.04,weatherlink.com 1.10,2014-02-05 02:02:00,
2014-02-04 21:17:00,42.1,42.0,29.99,SSE,167,3.0,-999.0,98,-99.99,,,0.04,weatherlink.com 1.10,2014-02-05 02:17:00,
2014-02-04 21:32:00,42.0,42.0,30.00,South,173,1.0,-999.0,98,-99.99,,,0.04,weatherlink.com 1.10,2014-02-05 02:32:00,
2014-02-04 21:47:00,41.9,41.0,30.00,SSE,149,0.0,-999.0,98,-99.99,,,0.04,weatherlink.com 1.10,2014-02-05 02:47:00,
2014-02-04 22:02:00,41.9,41.0,29.99,SSE,152,0.0,-999.0,98,-99.99,,,0.04,weatherlink.com 1.10,2014-02-05 03:02:00,
2014-02-04 22:17:00,41.7,41.0,29.98,SSE,152,0.0,-999.0,98,-99.99,,,0.04,weatherlink.com 1.10,2014-02-05 03:17:00,
2014-02-04 22:32:00,41.5,41.0,29.98,SSE,159,0.0,-999.0,98,-99.99,,,0.04,weatherlink.com 1.10,2014-02-05 03:32:00,
2014-02-04 22:47:00,41.5,41.0,29.97,SSE,155,2.0,-999.0,99,-99.99,,,0.04,weatherlink.com 1.10,2014-02-05 03:47:00,
2014-02-04 23:02:00,41.6,41.0,29.98,SSE,166,0.0,-999.0,99,-99.99,,,0.04,weatherlink.com 1.10,2014-02-05 04:02:00,
2014-02-04 23:17:00,41.6,41.0,29.96,SSE,156,0.0,-999.0,99,-99.99,,,0.04,weatherlink.com 1.10,2014-02-05 04:17:00,
2014-02-04 23:32:00,41.5,41.0,29.96,SSE,165,1.0,-999.0,99,-99.99,,,0.04,weatherlink.com 1.10,2014-02-05 04:32:00,
2014-02-04 23:47:00,41.4,41.0,29.96,SSE,163,0.0,-999.0,98,-99.99,,,0.04,weatherlink.com 1.10,2014-02-05 04:47:00,